Ashtabula, OH

5:00 PM EST on December 09, 2019 (GMT -0500)
Ashtabula County

Weather History for KHZY - September, 2019

Change the Weather History Date:

Monday, September 2, 2019

  Actual Average (KGKJ) Record (KGKJ)
Temperature  
Mean Temperature 66 °F -  
Max Temperature 75 °F 78 °F 96 °F (1953)
Min Temperature 60 °F 53 °F 39 °F (1948)
Cooling Degree Days 2    
Growing Degree Days 16 (Base 50)    
Moisture  
Dew Point 64 °F    
Average Humidity 92    
Maximum Humidity 100    
Minimum Humidity 64    
Precipitation  
Precipitation 0.06 in - - ()
Sea Level Pressure  
Sea Level Pressure 30.06 in    
Wind  
Wind Speed 5 mph (WSW)    
Max Wind Speed 12 mph    
Max Gust Speed 16 mph    
Visibility 9 miles    
Events Rain    
Averages and records for this station are not official NWS values.
T = Trace of Precipitation, MM = Missing Value Source: NWS Daily Summary

Daily Weather History Graph

Daily Weather History Graph

Search for Another Location

Airport or City:

Astronomy

Sep. 02, 2019 Rise Set
Actual Time 6:49 AM EDT 7:54 PM EDT
Civil Twilight 6:20 AM EDT 8:23 PM EDT
Nautical Twilight 5:46 AM EDT 8:57 PM EDT
Astronomical Twilight 5:10 AM EDT 9:32 PM EDT
Moon 10:33 AM EDT (9/2) 10:12 PM EDT (9/2)
Length of Visible Light 14h 02m
Length of Day
13h 05m
Waxing Crescent, 15% of the Moon is Illuminated
Sep 2
Waxing Crescent
Sep 5
First Quarter
Sep 14
Full
Sep 21
Last Quarter
Sep 28
New

Hourly Weather History & Observations

Time (EDT) Temp. Dew Point Humidity Pressure Visibility Wind Dir Wind Speed Gust Speed Precip Events Conditions
12:53 AM 64.9 °F 64.9 °F 100% 30.06 in 10.0 mi South 5.8 mph - 0.05 in   Overcast
1:06 AM 64.9 °F 64.0 °F 97% 30.06 in 10.0 mi SSE 6.9 mph - N/A   Overcast
1:53 AM 64.9 °F 64.9 °F 100% 30.06 in 10.0 mi South 3.5 mph - N/A   Overcast
2:03 AM 64.9 °F 64.9 °F 100% 30.07 in 10.0 mi South 5.8 mph - N/A   Overcast
2:15 AM 64.9 °F 64.9 °F 100% 30.06 in 10.0 mi South 5.8 mph - N/A   Overcast
2:27 AM 64.9 °F 64.9 °F 100% 30.06 in 10.0 mi South 5.8 mph - N/A   Mostly Cloudy
2:34 AM 64.9 °F 64.9 °F 100% 30.06 in 10.0 mi South 6.9 mph - N/A   Mostly Cloudy
2:42 AM 64.9 °F 64.9 °F 100% 30.06 in 10.0 mi SSW 3.5 mph - N/A   Mostly Cloudy
2:53 AM 64.9 °F 64.9 °F 100% 30.04 in 10.0 mi SSW 3.5 mph - N/A   Mostly Cloudy
3:08 AM 64.9 °F 64.9 °F 100% 30.05 in 10.0 mi SSW 3.5 mph - N/A   Scattered Clouds
3:53 AM 64.9 °F 64.9 °F 100% 30.02 in 8.0 mi South 4.6 mph - N/A   Mostly Cloudy
4:35 AM 64.0 °F 64.0 °F 100% 30.04 in 5.0 mi Calm Calm - N/A   Overcast
4:53 AM 64.9 °F 64.9 °F 100% 30.03 in 9.0 mi South 3.5 mph - N/A   Overcast
5:04 AM 64.9 °F 64.9 °F 100% 30.05 in 10.0 mi SW 3.5 mph - N/A   Overcast
5:53 AM 64.9 °F 64.9 °F 100% 30.04 in 9.0 mi South 4.6 mph - N/A   Overcast
6:53 AM 64.9 °F 64.9 °F 100% 30.05 in 8.0 mi SSW 4.6 mph - N/A   Overcast
7:07 AM 64.9 °F 64.9 °F 100% 30.05 in 8.0 mi SSW 4.6 mph - N/A   Overcast
7:31 AM 64.9 °F 64.9 °F 100% 30.06 in 7.0 mi West 4.6 mph - N/A   Overcast
7:53 AM 66.0 °F 66.0 °F 100% 30.05 in 7.0 mi Calm Calm - N/A   Overcast
8:00 AM 66.0 °F 66.0 °F 100% 30.06 in 7.0 mi West 3.5 mph - N/A   Overcast
8:19 AM 66.0 °F 66.0 °F 100% 30.07 in 5.0 mi West 4.6 mph - 0.00 in Rain Light Rain
8:44 AM 66.0 °F 66.0 °F 100% 30.07 in 6.0 mi West 3.5 mph - 0.01 in   Overcast
8:53 AM 66.0 °F 66.0 °F 100% 30.06 in 7.0 mi West 4.6 mph - 0.01 in   Overcast
9:53 AM 66.9 °F 64.9 °F 93% 30.06 in 10.0 mi NNW 5.8 mph - N/A   Overcast
10:53 AM 66.9 °F 64.9 °F 93% 30.07 in 10.0 mi Calm Calm - N/A   Overcast
11:53 AM 69.1 °F 64.9 °F 87% 30.08 in 10.0 mi NW 5.8 mph - N/A   Overcast
12:14 PM 69.1 °F 64.0 °F 84% 30.09 in 10.0 mi NW 6.9 mph - N/A   Overcast
12:53 PM 71.1 °F 64.9 °F 81% 30.07 in 10.0 mi Variable 3.5 mph - N/A   Overcast
1:26 PM 71.1 °F 64.9 °F 81% 30.08 in 10.0 mi NNW 8.1 mph - N/A   Overcast
1:53 PM 71.1 °F 64.0 °F 78% 30.07 in 10.0 mi WNW 8.1 mph - N/A   Overcast
2:53 PM 71.1 °F 63.0 °F 75% 30.06 in 10.0 mi NW 5.8 mph - N/A   Mostly Cloudy
3:40 PM 73.0 °F 63.0 °F 71% 30.07 in 10.0 mi NW 6.9 mph - N/A   Mostly Cloudy
3:53 PM 73.9 °F 63.0 °F 68% 30.05 in 10.0 mi NW 10.4 mph - N/A   Mostly Cloudy
4:18 PM 73.9 °F 62.1 °F 66% 30.06 in 10.0 mi NW 9.2 mph - N/A   Scattered Clouds
4:53 PM 73.9 °F 61.0 °F 64% 30.06 in 10.0 mi NW 11.5 mph 16.1 mph N/A   Partly Cloudy
5:53 PM 73.0 °F 61.0 °F 66% 30.04 in 10.0 mi WNW 6.9 mph - N/A   Clear
6:53 PM 70.0 °F 60.1 °F 71% 30.05 in 10.0 mi Calm Calm - N/A   Clear
7:53 PM 66.0 °F 64.0 °F 93% 30.06 in 10.0 mi Calm Calm - N/A   Partly Cloudy
8:53 PM 62.1 °F 62.1 °F 100% 30.06 in 10.0 mi Calm Calm - N/A   Partly Cloudy
9:53 PM 60.1 °F 60.1 °F 100% 30.07 in 10.0 mi ESE 3.5 mph - N/A   Scattered Clouds
10:53 PM 60.1 °F 60.1 °F 100% 30.08 in 9.0 mi Calm Calm - N/A   Scattered Clouds
11:53 PM 61.0 °F 61.0 °F 100% 30.08 in 7.0 mi Calm Calm - N/A   Mostly Cloudy